Find Starlink 4020

NORAD ID: 52703 Int'l Des: 2022-053 Owner: SPXS Country: US Constellation: starlink operational
LEOCIRCULAR

当前视图

正在加载3D地球...

About Starlink 4020

Starlink 4020 (NORAD 52703) is a starlink constellation satellite (v1.5) launched May 18, 2022 by SPXS of US. It operates in LEO, CIRCULAR orbit with a mass of 297.00 kg.

关于 Starlink 4020

正在加载描述...

即将过境

Passes for default location (London). Set your location on the main map for personalized predictions.

高度历史

Loading altitude history...

两行轨道根数

1 52703U 22053AZ 26195.16668980 .00080455 00000-0 35689-2 0 9991
2 52703 53.1597 285.1966 0000776 103.2547 220.8300 15.20896766 5783
Epoch: Jul 14, 2026 • Age: 5 hours

当前状态

高度 512.9 km
远地点 / 近地点 N/A
速度 7.61 km/s
星下点 -30.85°S, 165.1°W
发射日期 May 18, 2022
运行时间 4.1 years
类型 internet

技术详情

分类 Payload
质量 297.00 kg
干质量 275.00 kg
总质量 297.00 kg
长度 0.20 m
直径 2.80 m
跨度 9.00 m
形状 Box + pan
制造商 SPXS
平台类型 Starlink
阶段状态 In Orbit
所有者/国家 SPXS/US

Most Searched